Skip Page Navigation
NASA JPL Caltech
NASA Logo - Jet Propulsion Laboratory + View the NASA Portal
+ Near-Earth Object (NEO) Program
Search JPL
JPL Home Earth Solar System Stars & Galaxies Technology
JPL Solar System Dynamics
BODIES ORBITS EPHEMERIDES TOOLS PHYSICAL DATA DISCOVERY FAQ SITE MAP
JPL Small-Body Database Browser
Search: [ help ]  
37601 Vicjen (1992 GC1)
Classification: Main-belt Asteroid          SPK-ID: 2037601
Ephemeris | Orbit Diagram | Orbital Elements | Physical Parameters | Discovery Circumstances ]

[ show orbit diagram ]
Orbital Elements at Epoch 2456400.5 (2013-Apr-18.0) TDB
Reference: MPO223449 (heliocentric ecliptic J2000)
 Element Value Uncertainty (1-sigma)   Units 
e 0.2373917 n/a  
a 2.2639195 n/a AU
q 1.7264838 n/a AU
i 24.63297 n/a deg
node 32.30212 n/a deg
peri 123.18736 n/a deg
M 83.78959 n/a deg
tp 2456110.9140677
(2012-Jul-02.41406770)
n/a JED
period 1244.1991375
3.41
n/a
n/a
d
yr
n 0.28934275 n/a deg/d
Q 2.8013552 n/a AU
  Orbit Determination Parameters
   # obs. used (total)      402  
   first obs. used      1976-??-??  
   last obs. used      2012-02-26  
   # oppositions      9  
   planetary ephem.      DE403  
   condition code      0  
   fit RMS      0.54  
   data source      MPC:mpn  
   producer      MPCLINUX  

Additional Information
 T_jup = 3.463 

Ephemeris | Orbit Diagram | Orbital Elements | Physical Parameters | Discovery Circumstances ]

Physical Parameter Table
Parameter Symbol Value Units Sigma Reference Notes
absolute magnitude H 13.6 mag n/a PDS3 (MPO 26215)  

37601 Vicjen           Discovered 1992 Apr. 3 by C. S. Shoemaker and D. H. Levy at Palomar.
Vic Winter (b. 1953) and Jen Winter (b. 1969) have spread interest in astronomy to a series of rural schools in Bolivia. They work with schools there, giving freely of their astronomical knowledge and providing telescopes and support. They try to instill in this remote land a love of the night sky.
NOTE: some special characters may not display properly (any characters within {} are an attempt to place the proper accent above a character)
Reference: 20050125/MPCPages.arcLast Updated: 2005-06-01

Alternate Designations
 1992 GC1 = 1999 FW59 
Ephemeris | Orbit Diagram | Orbital Elements | Physical Parameters | Discovery Circumstances ]
ABOUT SSD CREDITS/AWARDS PRIVACY/COPYRIGHT GLOSSARY LINKS
FirstGov 2013-May-21 09:59 UT
(server date/time)  
NASA Home Page
Site Manager:   Donald K. Yeomans
Webmaster  Alan B. Chamberlin